Simultaneous Nadir Overpasses (SNOs) Predictions

Prediction of SNOs between GOES-17 and TERRA Satellite Orbit:

Table of predicted SNOs for the next 14.0 days since TLE Epoch: 5/30/2025
Index Date Time (GOES-17) GOES-17 Lat,Lon TERRA Lat,Lon Distance(km) Time Diff (sec)
1 05/31/2025 16:18:57 0.02,-104.44 -0.12,-103.64 90.19 80
2 06/01/2025 04:38:34 -0.02,-104.38 -0.89,-108.41 458.88 80
3 06/03/2025 04:16:47 -0.02,-104.38 0.08,-103.81 64.63 80
4 06/03/2025 16:36:16 0.01,-104.44 0.88,-108.55 467.42 80
5 06/05/2025 16:19:49 0.01,-104.45 -0.10,-103.95 56.60 80
6 06/06/2025 04:39:25 -0.01,-104.39 -0.94,-108.71 491.85 80
7 06/08/2025 04:17:38 -0.01,-104.39 0.06,-104.11 32.07 80
8 06/10/2025 16:20:39 -0.00,-104.45 -0.05,-104.25 23.42 80
9 06/13/2025 04:21:07 0.01,-104.40 0.02,-104.41 1.80 80
